EW5053 Weather Reports


time (UTC)temp
F
wind
direction
speed
knots
gust
knots
rain 1hr
in
rain 24hr
in
rain mn
in
humidity
%
barometer
mb
20260505041504 65 220 4.3 9.6 0.00 0.00 0.00 61 1007.9
20260505041003 65 226 5.2 7.0 0.00 0.00 0.00 62 1008.0
20260505040505 65 216 4.3 8.7 0.00 0.00 0.00 61 1008.2
20260505035504 65 208 6.1 7.8 0.00 0.00 0.00 61 1008.1
20260505035005 65 209 4.3 7.8 0.00 0.00 0.00 61 1007.9
20260505034504 65 212 3.5 7.8 0.00 0.00 0.00 61 1007.8
20260505034003 65 211 6.1 8.7 0.00 0.00 0.00 61 1007.8
20260505033505 65 204 6.1 8.7 0.00 0.00 0.00 61 1007.9
20260505033003 65 202 4.3 8.7 0.00 0.00 0.00 61 1007.8
20260505032505 65 210 4.3 8.7 0.00 0.00 0.00 62 1008.0
20260505032004 65 225 4.3 7.0 0.00 0.00 0.00 62 1007.6
20260505030504 65 213 3.5 6.1 0.00 0.00 0.00 62 1007.7
20260505030005 65 212 4.3 7.0 0.00 0.00 0.00 62 1007.8
20260505025504 65 205 3.5 7.0 0.00 0.00 0.00 62 1007.7
20260505025004 65 200 3.5 6.1 0.00 0.00 0.00 62 1007.6
20260505024504 65 210 2.6 6.1 0.00 0.00 0.00 61 1007.5
20260505024004 65 214 2.6 4.3 0.00 0.00 0.00 61 1007.5
20260505023504 65 208 3.5 6.1 0.00 0.00 0.00 61 1007.5
20260505023005 65 200 2.6 6.1 0.00 0.00 0.00 61 1007.3
20260505022504 66 204 2.6 5.2 0.00 0.00 0.00 61 1007.4
20260505022004 66 212 2.6 4.3 0.00 0.00 0.00 60 1007.1
20260505021504 66 204 2.6 6.1 0.00 0.00 0.00 60 1007.2
20260505021004 66 207 3.5 6.1 0.00 0.00 0.00 60 1007.2
20260505020504 66 215 3.5 6.1 0.00 0.00 0.00 59 1007.3
20260505020004 66 216 3.5 6.1 0.00 0.00 0.00 59 1007.2
20260505015503 66 218 3.5 6.1 0.00 0.00 0.00 59 1007.1
20260505015004 66 215 4.3 6.1 0.00 0.00 0.00 59 1007.1
20260505014505 66 213 3.5 4.3 0.00 0.00 0.00 59 1007.0
20260505014004 67 221 2.6 4.3 0.00 0.00 0.00 58 1007.0
20260505013503 67 216 2.6 4.3 0.00 0.00 0.00 57 1007.1
20260505012005 68 203 4.3 7.0 0.00 0.00 0.00 57 1006.9
20260505011504 68 172 5.2 8.7 0.00 0.00 0.00 56 1007.0
20260505010504 68 213 4.3 7.8 0.00 0.00 0.00 56 1006.7
20260505010004 68 227 5.2 7.8 0.00 0.00 0.00 56 1006.9
20260505005504 68 229 4.3 7.0 0.00 0.00 0.00 55 1006.9
20260505005004 68 216 4.3 7.0 0.00 0.00 0.00 55 1007.0
20260505004505 68 208 3.5 6.1 0.00 0.00 0.00 55 1006.9
20260505004004 69 209 2.6 6.1 0.00 0.00 0.00 55 1007.0
20260505003505 69 201 3.5 7.8 0.00 0.00 0.00 54 1007.0
20260505003004 69 205 2.6 9.6 0.00 0.00 0.00 54 1007.0
20260505002504 69 220 2.6 9.6 0.00 0.00 0.00 54 1006.9
20260505001504 70 207 3.5 7.8 0.00 0.00 0.00 54 1007.1
20260505001004 70 217 2.6 8.7 0.00 0.00 0.00 53 1007.1
20260505000504 71 222 6.1 8.7 0.00 0.00 0.00 53 1006.9
20260505000004 71 205 7.0 7.8 0.00 0.00 0.00 53 1007.1
20260504235503 71 205 6.1 7.8 0.00 0.00 0.00 52 1007.1
20260504235004 71 206 6.1 8.7 0.00 0.00 0.00 52 1007.2
20260504234004 72 217 5.2 9.6 0.00 0.00 0.00 51 1007.5
20260504233004 72 226 5.2 7.8 0.00 0.00 0.00 49 1007.3
20260504232504 72 222 5.2 10.4 0.00 0.00 0.00 46 1007.2
20260504232004 73 220 6.1 10.4 0.00 0.00 0.00 47 1007.4
20260504231503 73 220 8.7 10.4 0.00 0.00 0.00 46 1007.1
20260504231004 73 234 7.8 11.3 0.00 0.00 0.00 46 1007.4
20260504230505 73 231 3.5 11.3 0.00 0.00 0.00 46 1007.7
20260504230006 73 216 7.8 13.0 0.00 0.00 0.00 46 1007.5
20260504225504 73 214 11.3 13.0 0.00 0.00 0.00 45 1007.6
20260504225004 74 230 7.8 13.0 0.00 0.00 0.00 45 1007.6
20260504224005 74 211 7.0 11.3 0.00 0.00 0.00 48 1007.4
20260504223503 74 205 4.3 10.4 0.00 0.00 0.00 48 1007.6
20260504222004 74 235 7.8 10.4 0.00 0.00 0.00 47 1007.5
20260504221004 74 225 8.7 16.5 0.00 0.00 0.00 46 1007.8
20260504220504 75 227 8.7 16.5 0.00 0.00 0.00 47 1007.6
20260504215503 75 230 4.3 11.3 0.00 0.00 0.00 49 1008.0
20260504215004 75 229 4.3 7.8 0.00 0.00 0.00 50 1007.7
20260504214505 75 232 4.3 7.8 0.00 0.00 0.00 53 1008.1
20260504214004 74 252 2.6 7.8 0.00 0.00 0.00 48 1008.0
20260504213504 74 252 6.1 10.4 0.00 0.00 0.00 47 1008.1
20260504213004 74 256 7.0 10.4 0.00 0.00 0.00 47 1008.1
20260504212004 75 263 6.1 9.6 0.00 0.00 0.00 49 1008.0
20260504211504 75 277 6.1 9.6 0.00 0.00 0.00 49 1008.4
20260504211005 75 260 6.1 9.6 0.00 0.00 0.00 48 1008.1
20260504210506 75 236 5.2 9.6 0.00 0.00 0.00 50 1008.1
20260504210005 75 238 7.0 9.6 0.00 0.00 0.00 53 1008.1
20260504205504 74 224 4.3 11.3 0.00 0.00 0.00 53 1008.2
20260504205003 74 230 7.0 11.3 0.00 0.00 0.00 50 1008.4
20260504204005 74 224 4.3 10.4 0.00 0.00 0.00 50 1008.3
20260504203505 74 227 6.1 9.6 0.00 0.00 0.00 48 1008.5
20260504203005 74 262 5.2 9.6 0.00 0.00 0.00 50 1008.6
20260504202504 74 262 4.3 9.6 0.00 0.00 0.00 51 1008.6
20260504201504 74 224 5.2 13.0 0.00 0.00 0.00 51 1008.6
20260504201005 74 216 6.1 13.9 0.00 0.00 0.00 51 1008.7
20260504200004 73 237 10.4 11.3 0.00 0.00 0.00 54 1008.9
20260504195004 72 248 6.1 8.7 0.00 0.00 0.00 53 1009.4
20260504194504 73 270 5.2 12.2 0.00 0.00 0.00 55 1009.3
20260504194003 73 282 6.1 12.2 0.00 0.00 0.00 54 1009.3
20260504193504 72 270 6.1 11.3 0.00 0.00 0.00 59 1009.4
20260504193004 72 256 7.0 13.0 0.00 0.00 0.00 58 1009.4
20260504192503 71 243 3.5 13.0 0.00 0.00 0.00 58 1009.4
20260504192004 71 232 10.4 13.0 0.00 0.00 0.00 57 1009.5
20260504191504 71 224 7.0 14.8 0.00 0.00 0.00 57 1009.4
20260504191004 71 221 7.0 14.8 0.00 0.00 0.00 58 1009.7
20260504190505 71 221 6.1 11.3 0.00 0.00 0.00 61 1009.6
20260504185504 70 229 6.1 13.9 0.00 0.00 0.00 62 1009.5
20260504185005 70 225 10.4 13.9 0.00 0.00 0.00 59 1009.5
20260504184503 70 221 7.8 13.0 0.00 0.00 0.00 61 1009.5
20260504184004 70 217 8.7 13.0 0.00 0.00 0.00 61 1009.4
20260504183005 70 222 7.8 11.3 0.00 0.00 0.00 59 1009.1
20260504182504 70 217 5.2 11.3 0.00 0.00 0.00 62 1009.4
20260504182005 70 218 8.7 11.3 0.00 0.00 0.00 60 1009.6
20260504181503 70 219 4.3 10.4 0.00 0.00 0.00 59 1009.4
20260504181004 69 214 7.8 10.4 0.00 0.00 0.00 59 1009.5
20260504180504 69 221 4.3 9.6 0.00 0.00 0.00 64 1009.7
20260504180004 69 227 4.3 9.6 0.00 0.00 0.00 61 1009.6
20260504175504 68 211 6.1 9.6 0.00 0.00 0.00 64 1009.4
20260504175005 67 204 4.3 9.6 0.00 0.00 0.00 60 1009.7
20260504174505 68 207 4.3 14.8 0.00 0.00 0.00 58 1009.4
20260504174005 69 200 7.8 14.8 0.00 0.00 0.00 57 1009.1
20260504173504 69 202 13.0 14.8 0.00 0.00 0.00 63 1009.2
20260504173004 69 213 4.3 12.2 0.00 0.00 0.00 65 1009.0
20260504172504 68 208 7.8 12.2 0.00 0.00 0.00 61 1009.1
20260504151003 62 221 2.6 8.7 0.00 0.00 0.00 69 1010.0
20260504141004 60 218 6.1 9.6 0.00 0.00 0.00 70 1010.4
20260504140505 59 216 7.8 13.0 0.00 0.00 0.00 70 1010.4
20260504130504 55 202 5.2 11.3 0.00 0.00 0.00 74 1011.2
20260504100504 50 203 2.6 5.2 0.00 0.00 0.00 68 1010.9
20260504082003 50 205 4.3 5.2 0.00 0.00 0.00 67 1011.3
20260504081004 50 216 1.7 5.2 0.00 0.00 0.00 67 1011.5
20260504080504 50 203 3.5 4.3 0.00 0.00 0.00 67 1011.5
20260504050504 50 192 2.6 3.5 0.00 0.00 0.00 67 1013.0
20260504050004 50 210 2.6 3.5 0.00 0.00 0.00 66 1013.0
20260504045504 50 203 1.7 3.5 0.00 0.00 0.00 67 1012.9
20260504045004 50 211 1.7 3.5 0.00 0.00 0.00 66 1012.9
20260504044004 50 182 1.7 3.5 0.00 0.00 0.00 66 1013.1
20260504043504 50 209 0.9 2.6 0.00 0.00 0.00 66 1013.2
20260504043004 50 210 1.7 2.6 0.00 0.00 0.00 66 1013.1
20260504042504 50 200 0.9 2.6 0.00 0.00 0.00 66 1013.0
20260504042005 51 196 1.7 2.6 0.00 0.00 0.00 66 1013.2